SL-8 R/B

Satellite information

Favourite Embed

Satellite Type and Status

ROCKET BODYIN ORBIT

Key statistics

Satellite SL-8 R/B at a glance.

Uptime

15187

Days in orbit

Revolutions

≈ 13.8

Per day

Orbit

LEO

Low Earth Orbit

Inclination

82.9

Latest

Satellite identification and parameters

Extended collection of information and parameters for SL-8 R/B.

Object identification

Identified? True

Debris? False

Object name: SL-8 R/B

International designator: 1983-120B

Object number (NORAD): 14547

Object ID (CCSDS): 14547

Country: COMMONWEALTH OF INDEPENDENT STATES (CIS)

Current information (Y/N): Y

RCS size: LARGE

Orbital parameters

Period: 104.546 minutes

Inclination: 82.9304 deg

SMA: 7351.338 km

Apoapsis: 1006.475 km

Periapsis: 939.931 km

RAAN: 61.5714 deg

Eccentricy: 0.004526

Argument of periapsis: 273.6346 deg

Mean anomaly: 85.9636 deg

Mean motion: 13.77378062 rev/day

Mean motion (dot): 0.00000054 rev/day2

B* drag term: 0.000038898 1/REarth

Two-line elements (TLE)

Creation date: July 6, 2025, 6:05 p.m.

Reference frame: TEME

Reference center: EARTH

Epoch: July 6, 2025, 1:48 p.m. UTC

TLE line 0: 0 SL-8 R/B

TLE line 1: 1 14547U 83120B 25187.57502143 .00000054 00000-0 38898-4 0 9994

TLE line 2: 2 14547 82.9304 61.5714 0045260 273.6346 85.9636 13.77378062845054

Live tracking on map

Real-time ground track for satellite SL-8 R/B.

In-orbit conjunctions

A list of the most updated potential collisions computed for object SL-8 R/B.

Target Orbit TCA Probability of collision Miss distance Type
COSMOS 951 LEO 2025-03-02 20:21:24 0.0001317556 89.0 (m) PAYLOAD
CZ-6A DEB LEO 2024-11-07 20:28:28 0.000141262 607.0 (m) DEBRIS
FENGYUN 1C DEB SSO 2024-06-03 07:53:30 0.0001601165 210.0 (m) DEBRIS

Associated space launch

Navigation satellite providing location information for the Tsiklon-B navigation system

SL-8 R/B was lifted into orbit during the mission ‘Kosmos-3M | Parus 40’, on board a Kosmos-3M space rocket.

The launch took place on Dec. 8, 1983, 6:13 a.m. from 132/2.

For more information about the launch, click the button.

Launch to space Kosmos-3M | Parus 40
Kosmos-3M | Parus 40

Agency: N/A

Status: Launch Successful

Launch date: Dec. 8, 1983, 6:13 a.m. UTC

Rocket: Kosmos-3M

Launch pad: 132/2

Location: Plesetsk Cosmodrome, Russian Federation

...

Latest news about this satellite

There are no fresh news available about this satellite. Check back as we update our databases every day.


Newsletter sign-up

Weekly statistics, charts and insights to help you stay on top of the space industry.